Tracking 28790 objects as of 19-Apr-2024
HD Live streaming from Space Station
objects crossing your sky now

FENGYUN 1C DEB

Track FENGYUN 1C DEB now!
10-day predictions


NORAD ID: 31742
Int'l Code: 1999-025CER
Perigee: 724.0 km
Apogee: 839.3 km
Inclination: 99.0 °
Period: 100.3 minutes
Semi major axis: 7152 km
RCS: 0.0202 m2 (small)
Launch date: May 10, 1999
Source: People's Republic of China (PRC)
Launch site: Taiyaun Space Center, China (TSC)

Note: This is SATELLITE DEBRIS
Your satellite tracking list
Your tracking list is empty




NASA's NSSDC Master Catalog

Two Line Element Set (TLE):
1 31742U 99025CER 24109.73490216  .00004881  00000-0  16619-2 0  9996
2 31742  98.9691 298.5875 0080621 305.2028  54.1625 14.35168881881962
Source of the keplerian elements: AFSPC